Zurück zum Katalog

STARLINK-35557

AktivKommunikationVLEO
NORAD 66237·PAYLOAD·🇺🇸 United States

Gestartet Oct 29, 2025 von Cape Canaveral Space Force Station

Loading…

Nächste Überflüge (nächste 24 Stunden)

TLE

AktuellSource: CelesTrak SupGP

Epoche: Sep 14, 2026, 14:55 UTC

1 66237C 25245D   26257.62201389  .00030799  00000+0  90964-3 0  2570
2 66237  53.1569 121.5262 0001216 104.5241 145.0222 15.34386412    15

Verfolge STARLINK-35557 in Echtzeit mit AllMySat

Download on the App Store